| time (UTC) | temp F | wind direction | speed knots | gust knots | rain 1hr in | rain 24hr in | rain mn in | humidity % | barometer mb |
| 20260507051910 | 53 | 0.0 | 0.0 | 0.00 | 0.00 | 0.00 | 80 | 1015.2 | |
| 20260507045906 | 53 | 0.0 | 0.0 | 0.00 | 0.00 | 0.00 | 79 | 1014.9 | |
| 20260507044907 | 53 | 0.0 | 0.0 | 0.00 | 0.00 | 0.00 | 79 | 1014.9 | |
| 20260507043911 | 53 | 0.0 | 0.0 | 0.00 | 0.00 | 0.00 | 80 | 1014.8 | |
| 20260507040907 | 53 | 0.0 | 0.0 | 0.00 | 0.00 | 0.00 | 81 | 1014.4 | |
| 20260507035904 | 53 | 0.0 | 0.0 | 0.00 | 0.00 | 0.00 | 80 | 1014.4 | |
| 20260507034909 | 54 | 0.0 | 0.0 | 0.00 | 0.00 | 0.00 | 80 | 1014.4 | |
| 20260507032914 | 54 | 0.0 | 0.0 | 0.00 | 0.00 | 0.00 | 81 | 1014.3 | |
| 20260507030905 | 54 | 0.0 | 0.0 | 0.00 | 0.00 | 0.00 | 80 | 1014.1 | |
| 20260507025905 | 54 | 0.0 | 0.0 | 0.00 | 0.00 | 0.00 | 79 | 1014.2 | |
| 20260507024905 | 54 | 0.0 | 0.0 | 0.00 | 0.00 | 0.00 | 79 | 1014.2 | |
| 20260507023906 | 54 | 0.0 | 0.0 | 0.00 | 0.00 | 0.00 | 80 | 1014.1 | |
| 20260507022910 | 54 | 0.0 | 0.0 | 0.00 | 0.00 | 0.00 | 80 | 1014.1 | |
| 20260507020910 | 54 | 0.0 | 0.0 | 0.00 | 0.00 | 0.00 | 80 | 1014.0 | |
| 20260507014904 | 54 | 0.0 | 0.0 | 0.00 | 0.00 | 0.00 | 80 | 1013.8 | |
| 20260507013904 | 54 | 0.0 | 0.0 | 0.00 | 0.00 | 0.00 | 81 | 1013.7 | |
| 20260507012904 | 54 | 0.0 | 0.0 | 0.00 | 0.00 | 0.00 | 81 | 1013.6 | |
| 20260507011905 | 54 | 0.0 | 0.0 | 0.00 | 0.00 | 0.00 | 81 | 1013.6 | |
| 20260507010909 | 55 | 0.0 | 0.0 | 0.00 | 0.00 | 0.00 | 81 | 1013.5 | |
| 20260507003906 | 55 | 0.0 | 0.0 | 0.00 | 0.00 | 0.00 | 80 | 1013.5 | |
| 20260507002904 | 55 | 0.0 | 0.0 | 0.00 | 0.00 | 0.00 | 80 | 1013.4 | |
| 20260507001904 | 55 | 0.0 | 0.0 | 0.00 | 0.00 | 0.00 | 80 | 1013.4 | |
| 20260507000904 | 55 | 0.0 | 0.0 | 0.00 | 0.00 | 0.00 | 80 | 1013.4 | |
| 20260506235905 | 55 | 0.0 | 0.0 | 0.00 | 0.00 | 0.00 | 79 | 1013.3 | |
| 20260506234909 | 55 | 0.0 | 0.0 | 0.00 | 0.00 | 0.00 | 78 | 1013.3 | |
| 20260506231907 | 55 | 0.0 | 0.0 | 0.00 | 0.00 | 0.00 | 77 | 1013.0 | |
| 20260506230905 | 55 | 0.0 | 0.0 | 0.00 | 0.00 | 0.00 | 77 | 1013.0 | |
| 20260506225904 | 55 | 0.0 | 0.0 | 0.00 | 0.00 | 0.00 | 77 | 1013.0 | |
| 20260506224904 | 56 | 0.0 | 0.0 | 0.00 | 0.00 | 0.00 | 77 | 1013.0 | |
| 20260506223910 | 56 | 0.0 | 0.0 | 0.00 | 0.00 | 0.00 | 77 | 1012.9 | |
| 20260506221905 | 56 | 0.0 | 0.0 | 0.00 | 0.00 | 0.00 | 77 | 1012.7 | |
| 20260506220904 | 56 | 0.0 | 0.0 | 0.00 | 0.00 | 0.00 | 77 | 1012.7 | |
| 20260506215904 | 56 | 0.0 | 0.0 | 0.00 | 0.00 | 0.00 | 77 | 1012.6 | |
| 20260506214905 | 56 | 0.0 | 0.0 | 0.00 | 0.00 | 0.00 | 77 | 1012.6 | |
| 20260506213911 | 56 | 0.0 | 0.0 | 0.00 | 0.00 | 0.00 | 77 | 1012.6 | |
| 20260506211903 | 57 | 0.0 | 0.0 | 0.00 | 0.00 | 0.00 | 77 | 1012.4 | |
| 20260506210903 | 57 | 0.0 | 0.0 | 0.00 | 0.00 | 0.00 | 77 | 1012.4 | |
| 20260506205910 | 57 | 0.0 | 0.0 | 0.00 | 0.00 | 0.00 | 77 | 1014.1 | |
| 20260506204906 | 57 | 0.0 | 0.0 | 0.00 | 0.00 | 0.00 | 77 | 1012.1 | |
| 20260506203905 | 57 | 0.0 | 0.0 | 0.00 | 0.00 | 0.00 | 77 | 1012.0 | |
| 20260506202904 | 57 | 0.0 | 0.0 | 0.00 | 0.00 | 0.00 | 79 | 1012.0 | |
| 20260506201905 | 57 | 0.0 | 0.0 | 0.00 | 0.00 | 0.00 | 79 | 1011.9 | |
| 20260506200909 | 57 | 0.0 | 0.0 | 0.00 | 0.00 | 0.00 | 79 | 1011.8 | |
| 20260506195905 | 57 | 0.0 | 0.0 | 0.00 | 0.00 | 0.00 | 78 | 1011.6 | |
| 20260506194905 | 58 | 0.0 | 0.0 | 0.00 | 0.00 | 0.00 | 78 | 1011.4 | |
| 20260506193909 | 58 | 0.0 | 0.0 | 0.00 | 0.00 | 0.00 | 79 | 1011.3 | |
| 20260506191904 | 58 | 0.0 | 0.0 | 0.00 | 0.00 | 0.00 | 79 | 1010.9 | |
| 20260506190906 | 58 | 0.0 | 0.0 | 0.00 | 0.00 | 0.00 | 79 | 1010.9 | |
| 20260506185905 | 58 | 0.0 | 0.0 | 0.00 | 0.00 | 0.00 | 79 | 1010.9 | |
| 20260506184909 | 58 | 0.0 | 0.0 | 0.00 | 0.00 | 0.00 | 80 | 1010.5 | |
| 20260506182908 | 59 | 0.0 | 0.0 | 0.00 | 0.00 | 0.00 | 80 | 1010.5 | |
| 20260506180905 | 59 | 0.0 | 0.0 | 0.00 | 0.00 | 0.00 | 81 | 1010.2 | |
| 20260506175905 | 59 | 0.0 | 0.0 | 0.00 | 0.00 | 0.00 | 80 | 1010.1 | |
| 20260506174905 | 59 | 0.0 | 0.0 | 0.00 | 0.00 | 0.00 | 80 | 1009.9 | |
| 20260506173906 | 59 | 0.0 | 0.0 | 0.00 | 0.00 | 0.00 | 81 | 1009.8 | |
| 20260506172905 | 59 | 0.0 | 0.0 | 0.00 | 0.00 | 0.00 | 81 | 1009.8 | |
| 20260506171909 | 59 | 0.0 | 0.0 | 0.00 | 0.00 | 0.00 | 81 | 1009.5 | |
| 20260506165905 | 60 | 0.0 | 0.0 | 0.00 | 0.00 | 0.00 | 80 | 1009.5 | |
| 20260506164906 | 60 | 0.0 | 0.0 | 0.00 | 0.00 | 0.00 | 81 | 1009.3 | |
| 20260506163905 | 60 | 0.0 | 0.0 | 0.00 | 0.00 | 0.00 | 82 | 1009.2 | |
| 20260506162909 | 60 | 0.0 | 0.0 | 0.00 | 0.00 | 0.00 | 83 | 1009.1 | |
| 20260506160905 | 60 | 0.0 | 0.0 | 0.00 | 0.00 | 0.00 | 85 | 1009.0 | |
| 20260506155905 | 60 | 0.0 | 0.0 | 0.00 | 0.00 | 0.00 | 85 | 1008.4 | |
| 20260506154905 | 61 | 0.0 | 0.0 | 0.00 | 0.00 | 0.00 | 85 | 1008.9 | |
| 20260506153904 | 61 | 0.0 | 0.0 | 0.00 | 0.00 | 0.00 | 85 | 1008.9 | |
| 20260506152905 | 61 | 0.0 | 0.0 | 0.00 | 0.00 | 0.00 | 85 | 1009.0 | |
| 20260506151904 | 61 | 0.0 | 0.0 | 0.00 | 0.00 | 0.00 | 86 | 1008.9 | |
| 20260506150905 | 61 | 0.0 | 0.0 | 0.00 | 0.00 | 0.00 | 88 | 1008.8 | |
| 20260506145905 | 60 | 0.0 | 0.0 | 0.00 | 0.00 | 0.00 | 89 | 1008.7 | |
| 20260506144910 | 61 | 0.0 | 0.0 | 0.00 | 0.00 | 0.00 | 87 | 1008.6 | |
| 20260506142904 | 61 | 0.0 | 0.0 | 0.00 | 0.00 | 0.00 | 86 | 1008.6 | |
| 20260506141904 | 61 | 0.0 | 0.0 | 0.00 | 0.00 | 0.00 | 85 | 1008.6 | |
| 20260506140905 | 61 | 0.0 | 0.0 | 0.00 | 0.00 | 0.00 | 83 | 1008.6 | |
| 20260506135904 | 61 | 0.0 | 0.0 | 0.00 | 0.00 | 0.00 | 78 | 1008.6 | |
| 20260506134906 | 62 | 0.0 | 0.0 | 0.00 | 0.00 | 0.00 | 74 | 1008.6 | |
| 20260506133906 | 62 | 0.0 | 0.0 | 0.00 | 0.00 | 0.00 | 74 | 1008.4 | |
| 20260506132905 | 63 | 0.0 | 0.0 | 0.00 | 0.00 | 0.00 | 74 | 1008.3 | |
| 20260506131905 | 63 | 0.0 | 0.0 | 0.00 | 0.00 | 0.00 | 75 | 1008.4 | |
| 20260506130905 | 62 | 0.0 | 0.0 | 0.00 | 0.00 | 0.00 | 75 | 1008.5 | |
| 20260506125906 | 62 | 0.0 | 0.0 | 0.00 | 0.00 | 0.00 | 75 | 1008.5 | |
| 20260506124906 | 63 | 0.0 | 0.0 | 0.00 | 0.00 | 0.00 | 72 | 1008.3 | |
| 20260506123905 | 64 | 0.0 | 0.0 | 0.00 | 0.00 | 0.00 | 68 | 1008.2 | |
| 20260506122904 | 66 | 0.0 | 0.0 | 0.00 | 0.00 | 0.00 | 64 | 1008.1 | |
| 20260506121904 | 66 | 0.0 | 0.0 | 0.00 | 0.00 | 0.00 | 66 | 1008.2 | |
| 20260506120904 | 64 | 0.0 | 0.0 | 0.00 | 0.00 | 0.00 | 71 | 1008.3 | |
| 20260506115905 | 62 | 0.0 | 0.0 | 0.00 | 0.00 | 0.00 | 76 | 1008.4 | |
| 20260506114904 | 61 | 0.0 | 0.0 | 0.00 | 0.00 | 0.00 | 78 | 1008.5 | |
| 20260506113905 | 60 | 0.0 | 0.0 | 0.00 | 0.00 | 0.00 | 78 | 1008.6 | |
| 20260506112904 | 61 | 0.0 | 0.0 | 0.00 | 0.00 | 0.00 | 79 | 1008.6 | |
| 20260506111905 | 60 | 0.0 | 0.0 | 0.00 | 0.00 | 0.00 | 79 | 1008.0 | |
| 20260506110904 | 60 | 0.0 | 0.0 | 0.00 | 0.00 | 0.00 | 80 | 1008.5 | |
| 20260506105904 | 61 | 0.0 | 0.0 | 0.00 | 0.00 | 0.00 | 79 | 1008.5 | |
| 20260506104905 | 61 | 0.0 | 0.0 | 0.00 | 0.00 | 0.00 | 78 | 1008.6 | |
| 20260506103905 | 61 | 0.0 | 0.0 | 0.00 | 0.00 | 0.00 | 78 | 1008.5 | |
| 20260506102909 | 60 | 0.0 | 0.0 | 0.00 | 0.00 | 0.00 | 78 | 1008.3 | |
| 20260506100906 | 60 | 0.0 | 0.0 | 0.00 | 0.00 | 0.00 | 82 | 1008.6 | |
| 20260506095905 | 61 | 0.0 | 0.0 | 0.00 | 0.00 | 0.00 | 80 | 1008.6 | |
| 20260506094909 | 61 | 0.0 | 0.0 | 0.00 | 0.00 | 0.00 | 79 | 1008.4 | |
| 20260506092907 | 61 | 0.0 | 0.0 | 0.00 | 0.00 | 0.00 | 80 | 1008.3 | |
| 20260506091905 | 61 | 0.0 | 0.0 | 0.00 | 0.00 | 0.00 | 83 | 1008.5 | |
| 20260506090904 | 61 | 0.0 | 0.0 | 0.00 | 0.00 | 0.00 | 83 | 1008.5 | |
| 20260506085904 | 60 | 0.0 | 0.0 | 0.00 | 0.00 | 0.00 | 84 | 1008.4 | |
| 20260506084904 | 60 | 0.0 | 0.0 | 0.00 | 0.00 | 0.00 | 85 | 1008.0 | |
| 20260506083904 | 59 | 0.0 | 0.0 | 0.00 | 0.00 | 0.00 | 85 | 1008.5 | |
| 20260506082903 | 59 | 0.0 | 0.0 | 0.00 | 0.00 | 0.00 | 84 | 1008.4 | |
| 20260506081908 | 60 | 0.0 | 0.0 | 0.00 | 0.00 | 0.00 | 88 | 1008.3 | |
| 20260506071905 | 58 | 0.0 | 0.0 | 0.00 | 0.00 | 0.00 | 95 | 1008.2 | |
| 20260506070904 | 58 | 0.0 | 0.0 | 0.00 | 0.00 | 0.00 | 96 | 1008.2 |